Location: Recife
(8.0585°S, 34.8848°W)
Time: 13:51:17
(UTC-03:00)

Vanguard 2 - Pass Details

Date: 18 April 2026
Orbit: 553 x 2895 km, 32.9° (Epoch: 13 May)

Event Time Altitude Azimuth Distance (km) Brightness Sun altitude
Rises 19:43:05 0° 292° (WNW) 4,665 12.4 -36.8°
Reaches altitude 10° 19:45:45 10° 289° (WNW) 3,951 11.9 -37.5°
Maximum altitude 19:56:55 64° 209° (SSW) 2,508 9.9 -40.2°
Enters shadow 19:59:54 56° 167° (SSE) 2,802 10.0 -40.9°
